GW5132 Weather Reports


time (UTC)temp
C
wind
direction
speed
KPH
gust
KPH
rain 1hr
cm
rain 24hr
cm
rain mn
cm
humidity
%
barometer
mb
20260510071731 10 142 0.0 0.0 0.00 0.00 0.00 97 975.3
20260510071228 10 191 3.2 3.2 0.00 0.00 0.00 97 975.5
20260510070726 10 140 0.0 0.0 0.00 0.00 0.00 97 975.5
20260510070223 10 193 1.6 4.8 0.00 0.00 0.00 97 975.5
20260510065717 10 172 0.0 0.0 0.00 0.00 0.00 97 975.4
20260510065214 10 186 0.0 0.0 0.00 0.00 0.00 96 975.4
20260510064710 10 162 0.0 1.6 0.00 0.00 0.00 96 975.6
20260510064208 10 196 1.6 1.6 0.00 0.00 0.00 96 975.4
20260510063705 10 202 0.0 0.0 0.00 0.00 0.00 96 975.6
20260510063202 10 179 0.0 0.0 0.00 0.00 0.00 96 975.5
20260510062658 10 125 0.0 0.0 0.00 0.00 0.00 96 975.6
20260510062154 10 147 0.0 0.0 0.00 0.00 0.00 96 975.5
20260510061649 10 116 0.0 0.0 0.00 0.00 0.00 96 975.7
20260510061147 10 144 0.0 3.2 0.00 0.00 0.00 96 975.7
20260510060643 10 127 0.0 0.0 0.00 0.00 0.00 96 975.7
20260510060139 10 131 0.0 0.0 0.00 0.00 0.00 96 975.7
20260510055636 10 134 0.0 0.0 0.00 0.00 0.00 96 975.7
20260510055134 10 113 0.0 0.0 0.00 0.00 0.00 96 975.8
20260510054629 10 153 0.0 0.0 0.00 0.00 0.00 96 975.7
20260510054126 10 152 0.0 0.0 0.00 0.00 0.00 96 975.8
20260510053624 10 173 0.0 0.0 0.00 0.00 0.00 96 976.0
20260510053121 10 145 0.0 0.0 0.00 0.00 0.00 96 975.9
20260510052617 10 145 0.0 0.0 0.00 0.00 0.00 95 975.8
20260510052114 10 143 0.0 0.0 0.00 0.00 0.00 95 975.9
20260510051609 10 169 1.6 1.6 0.00 0.00 0.00 95 975.8
20260510051106 10 154 0.0 0.0 0.00 0.00 0.00 96 976.0
20260510050603 10 136 0.0 0.0 0.00 0.00 0.00 96 975.8
20260510050100 10 143 0.0 0.0 0.00 0.00 0.00 96 975.9
20260510045557 10 135 0.0 0.0 0.00 0.00 0.00 96 975.9
20260510045053 10 136 0.0 0.0 0.00 0.00 0.00 96 975.9
20260510044550 10 122 0.0 0.0 0.00 0.00 0.00 96 976.0
20260510044048 10 146 0.0 0.0 0.00 0.00 0.00 95 976.0
20260510043543 10 148 0.0 0.0 0.00 0.00 0.00 95 975.9
20260510043039 10 151 0.0 0.0 0.00 0.00 0.00 95 975.6
20260510042533 10 126 0.0 0.0 0.00 0.00 0.00 95 975.8
20260510042028 10 176 0.0 0.0 0.00 0.00 0.00 95 975.7
20260510041525 10 181 0.0 0.0 0.00 0.00 0.00 95 975.5
20260510041022 10 101 0.0 0.0 0.00 0.00 0.00 95 975.6
20260510040519 10 155 0.0 0.0 0.00 0.00 0.00 95 975.6
20260510040015 10 155 0.0 0.0 0.00 0.00 0.00 94 975.6
20260510035512 10 145 0.0 0.0 0.00 0.00 0.00 94 975.8
20260510035010 10 141 0.0 0.0 0.00 0.00 0.00 94 975.4
20260510034510 10 136 0.0 0.0 0.00 0.00 0.00 94 975.4
20260510034006 11 212 0.0 0.0 0.00 0.00 0.00 94 975.6
20260510033502 10 128 0.0 0.0 0.00 0.00 0.00 94 975.3
20260510032959 11 133 0.0 0.0 0.00 0.00 0.00 94 975.3
20260510032451 11 132 0.0 0.0 0.00 0.00 0.00 94 975.2
20260510031950 10 132 0.0 0.0 0.00 0.00 0.00 94 974.9
20260510031446 11 125 0.0 0.0 0.00 0.00 0.00 94 975.0
20260510030942 11 147 0.0 0.0 0.00 0.00 0.00 93 975.3
20260510030437 11 147 0.0 0.0 0.00 0.00 0.00 93 975.2
20260510025935 11 147 0.0 0.0 0.00 0.00 0.00 93 975.0
20260510025432 11 147 0.0 0.0 0.00 0.00 0.00 92 975.0
20260510024930 11 147 0.0 0.0 0.00 0.00 0.00 92 975.0
20260510024426 11 147 0.0 0.0 0.00 0.00 0.00 92 975.0
20260510023922 11 147 0.0 0.0 0.00 0.00 0.00 92 974.9
20260510023419 11 147 0.0 0.0 0.00 0.00 0.00 91 974.8
20260510022916 11 147 0.0 0.0 0.00 0.00 0.00 91 974.9
20260510022415 11 147 0.0 0.0 0.00 0.00 0.00 90 974.8
20260510021914 12 119 0.0 0.0 0.00 0.00 0.00 89 974.8
20260510021412 12 127 0.0 0.0 0.00 0.00 0.00 89 974.6
20260510020909 12 129 0.0 0.0 0.00 0.00 0.00 90 974.7
20260510020403 11 102 0.0 0.0 0.00 0.00 0.00 90 974.6
20260510015859 12 149 0.0 0.0 0.00 0.00 0.00 90 974.6
20260510015355 12 149 0.0 0.0 0.00 0.00 0.00 90 974.3
20260510014851 12 166 0.0 0.0 0.00 0.00 0.00 90 974.4
20260510014349 12 166 0.0 0.0 0.00 0.00 0.00 89 974.5
20260510013844 12 193 0.0 0.0 0.00 0.00 0.00 89 974.2
20260510013340 12 173 0.0 0.0 0.00 0.00 0.00 88 974.1
20260510012835 12 172 0.0 0.0 0.00 0.00 0.00 87 974.0
20260510012335 12 172 0.0 0.0 0.00 0.00 0.00 87 974.0
20260510011830 12 190 0.0 0.0 0.00 0.00 0.00 86 974.0
20260510011326 13 190 0.0 0.0 0.00 0.00 0.00 86 974.1
20260510010822 13 168 0.0 0.0 0.00 0.00 0.00 86 973.9
20260510010320 13 168 0.0 0.0 0.00 0.00 0.00 85 973.7
20260510005816 13 169 0.0 0.0 0.00 0.00 0.00 84 973.6
20260510005312 13 135 0.0 0.0 0.00 0.00 0.00 83 973.7
20260510004810 14 135 0.0 0.0 0.00 0.00 0.00 81 973.6
20260510004308 14 135 0.0 0.0 0.00 0.00 0.00 80 973.5
20260510003805 15 134 0.0 0.0 0.00 0.00 0.00 80 973.6
20260510003302 15 169 0.0 0.0 0.00 0.00 0.00 79 973.3
20260510002801 15 158 0.0 0.0 0.00 0.00 0.00 77 973.2
20260510002258 15 105 0.0 0.0 0.00 0.00 0.00 77 973.2
20260510001755 15 148 0.0 0.0 0.00 0.00 0.00 77 973.2
20260510001253 15 148 0.0 0.0 0.00 0.00 0.00 75 973.0
20260510000748 15 148 0.0 0.0 0.00 0.00 0.00 75 973.0
20260510000248 16 161 0.0 0.0 0.00 0.00 0.00 74 972.9
20260509235743 16 158 0.0 0.0 0.00 0.00 0.00 72 973.1
20260509235239 17 169 0.0 0.0 0.00 0.00 0.00 68 973.0
20260509234735 17 130 0.0 0.0 0.00 0.00 0.00 67 973.0
20260509234232 17 92 0.0 4.8 0.00 0.00 0.00 65 973.0
20260509233731 18 220 1.6 11.3 0.00 0.00 0.00 66 972.8
20260509233228 19 193 0.0 1.6 0.00 0.00 0.00 63 972.7
20260509232724 19 130 0.0 0.0 0.00 0.00 0.00 59 972.9
20260509232221 19 343 0.0 3.2 0.00 0.00 0.00 57 972.7
20260509231717 19 178 3.2 4.8 0.00 0.00 0.00 57 972.7
20260509231215 19 218 0.0 4.8 0.00 0.00 0.00 57 972.8
20260509230712 19 284 0.0 3.2 0.00 0.00 0.00 56 972.8
20260509230208 20 318 3.2 4.8 0.00 0.00 0.00 56 972.9
20260509225704 20 192 0.0 0.0 0.00 0.00 0.00 55 972.9
20260509225200 20 157 3.2 4.8 0.00 0.00 0.00 54 973.0
20260509224656 21 150 0.0 3.2 0.00 0.00 0.00 56 973.1
20260509224153 21 260 0.0 9.7 0.00 0.00 0.00 52 973.1
20260509223650 21 244 3.2 3.2 0.00 0.00 0.00 51 973.3
20260509223147 21 161 3.2 4.8 0.00 0.00 0.00 54 973.2
20260509222644 20 226 3.2 11.3 0.00 0.00 0.00 54 973.3
20260509222139 21 233 1.6 9.7 0.00 0.00 0.00 52 973.2
20260509221636 20 234 4.8 6.4 0.00 0.00 0.00 53 973.2
20260509221131 20 264 1.6 3.2 0.00 0.00 0.00 53 973.2
20260509220627 20 266 1.6 6.4 0.00 0.00 0.00 53 973.1
20260509220124 20 224 1.6 9.7 0.00 0.00 0.00 54 973.3
20260509215620 20 310 3.2 9.7 0.00 0.00 0.00 55 973.3
20260509215117 20 286 9.7 12.9 0.00 0.00 0.00 54 973.4
20260509214614 20 281 1.6 4.8 0.00 0.00 0.00 52 973.4
20260509214111 20 196 0.0 14.5 0.00 0.00 0.00 53 973.3
20260509213607 20 308 4.8 9.7 0.00 0.00 0.00 52 973.3
20260509213103 19 248 6.4 6.4 0.00 0.00 0.00 55 973.4
20260509212601 19 162 8.0 11.3 0.00 0.00 0.00 55 973.3
20260509212058 20 288 8.0 12.9 0.00 0.00 0.00 55 973.1
20260509211553 20 164 3.2 4.8 0.00 0.00 0.00 55 973.1
20260509211050 20 82 0.0 3.2 0.00 0.00 0.00 54 973.4
20260509210547 20 316 1.6 4.8 0.00 0.00 0.00 54 973.2
20260509210043 20 312 0.0 0.0 0.00 0.00 0.00 56 973.1
20260509205537 20 306 6.4 9.7 0.00 0.00 0.00 56 973.2
20260509205033 20 219 4.8 9.7 0.00 0.00 0.00 55 972.9
20260509204530 20 290 8.0 9.7 0.00 0.00 0.00 55 972.9
20260509204026 20 5 1.6 6.4 0.00 0.00 0.00 56 973.1
20260509203522 20 202 3.2 6.4 0.00 0.00 0.00 58 973.0
20260509203021 19 189 4.8 4.8 0.00 0.00 0.00 58 972.9
20260509202514 20 139 1.6 6.4 0.00 0.00 0.00 57 973.0
20260509202010 20 162 3.2 4.8 0.00 0.00 0.00 55 973.1
20260509201505 20 68 0.0 3.2 0.00 0.00 0.00 56 973.1
20260509201003 20 240 0.0 11.3 0.00 0.00 0.00 55 973.1
20260509200458 19 271 16.1 25.7 0.00 0.00 0.00 56 973.4
20260509195954 20 108 4.8 6.4 0.00 0.00 0.00 57 973.4
20260509195450 19 59 0.0 6.4 0.00 0.00 0.00 56 973.3
20260509194949 19 129 0.0 16.1 0.00 0.00 0.00 58 973.3
20260509194445 19 170 4.8 11.3 0.00 0.00 0.00 57 973.3
20260509193943 19 243 0.0 1.6 0.00 0.00 0.00 61 973.3
20260509193442 19 152 4.8 9.7 0.00 0.00 0.00 56 973.6
20260509192938 19 195 3.2 6.4 0.00 0.00 0.00 55 973.6
20260509192435 19 133 3.2 9.7 0.00 0.00 0.00 56 973.4
20260509191930 20 3 0.0 6.4 0.00 0.00 0.00 56 973.4
20260509191426 19 334 0.0 9.7 0.00 0.00 0.00 57 973.5
20260509190922 19 215 6.4 9.7 0.00 0.00 0.00 57 973.3
20260509190419 19 223 6.4 6.4 0.00 0.00 0.00 58 973.3
20260509185917 19 229 3.2 12.9 0.00 0.00 0.00 58 973.4
20260509185414 19 297 0.0 4.8 0.00 0.00 0.00 56 973.5
20260509184911 19 322 3.2 4.8 0.00 0.00 0.00 56 973.5
20260509184408 19 313 1.6 9.7 0.00 0.00 0.00 56 973.4
20260509183905 19 155 3.2 9.7 0.00 0.00 0.00 56 973.3
20260509183359 18 185 3.2 9.7 0.00 0.00 0.00 58 973.4
20260509182855 19 107 8.0 11.3 0.00 0.00 0.00 57 973.5
20260509182352 18 352 0.0 1.6 0.00 0.00 0.00 57 973.6
20260509181850 18 172 4.8 9.7 0.00 0.00 0.00 56 973.4
20260509181347 18 214 3.2 4.8 0.00 0.00 0.00 56 973.3
20260509180845 18 284 6.4 20.9 0.00 0.00 0.00 57 973.4
20260509180340 18 320 4.8 16.1 0.00 0.00 0.00 55 973.5
20260509175837 18 17 0.0 6.4 0.00 0.00 0.00 56 973.5
20260509175333 18 177 6.4 11.3 0.00 0.00 0.00 56 973.4
20260509174829 18 89 3.2 4.8 0.00 0.00 0.00 56 973.5
20260509174325 18 182 4.8 12.9 0.00 0.00 0.00 54 973.4
20260509173821 19 18 3.2 9.7 0.00 0.00 0.00 53 973.5
20260509173317 18 174 6.4 6.4 0.00 0.00 0.00 53 973.6
20260509172813 18 159 3.2 12.9 0.00 0.00 0.00 52 973.4
20260509172310 18 205 4.8 12.9 0.00 0.00 0.00 50 973.8
20260509171806 18 178 6.4 9.7 0.00 0.00 0.00 52 973.8
20260509171302 18 63 0.0 14.5 0.00 0.00 0.00 52 973.6
20260509170759 18 96 0.0 6.4 0.00 0.00 0.00 52 973.6
20260509170254 18 144 6.4 11.3 0.00 0.00 0.00 51 973.7
20260509165753 18 167 3.2 11.3 0.00 0.00 0.00 54 973.5
20260509165244 18 209 0.0 6.4 0.00 0.00 0.00 53 973.6
20260509164740 17 246 8.0 11.3 0.00 0.00 0.00 52 973.6
20260509164236 17 158 6.4 11.3 0.00 0.00 0.00 52 973.6
20260509163733 18 199 1.6 16.1 0.00 0.00 0.00 53 973.8
20260509163229 17 135 4.8 9.7 0.00 0.00 0.00 55 973.8
20260509162727 17 45 3.2 6.4 0.00 0.00 0.00 54 973.8
20260509162221 17 186 6.4 9.7 0.00 0.00 0.00 54 973.8
20260509161717 17 143 1.6 9.7 0.00 0.00 0.00 57 973.8
20260509161214 17 128 6.4 11.3 0.00 0.00 0.00 56 973.7
20260509160709 16 223 3.2 4.8 0.00 0.00 0.00 57 974.0
20260509160205 16 96 3.2 3.2 0.00 0.00 0.00 60 973.9
20260509155701 16 88 1.6 6.4 0.00 0.00 0.00 60 973.7
20260509155157 16 137 0.0 3.2 0.00 0.00 0.00 58 973.8
20260509154653 16 262 0.0 3.2 0.00 0.00 0.00 60 973.8
20260509154151 16 137 6.4 6.4 0.00 0.00 0.00 59 973.9
20260509153647 16 143 6.4 6.4 0.00 0.00 0.00 60 974.0
20260509153144 16 223 0.0 6.4 0.00 0.00 0.00 62 973.8
20260509152639 16 203 1.6 4.8 0.00 0.00 0.00 61 973.9
20260509152137 16 209 0.0 3.2 0.00 0.00 0.00 66 974.0
20260509151633 16 206 0.0 3.2 0.00 0.00 0.00 65 974.1
20260509151131 16 98 1.6 3.2 0.00 0.00 0.00 66 974.1
20260509150629 16 249 0.0 0.0 0.00 0.00 0.00 68 974.1
20260509150127 15 135 0.0 6.4 0.00 0.00 0.00 64 974.3
20260509145623 16 202 3.2 3.2 0.00 0.00 0.00 67 974.2
20260509145118 15 209 1.6 3.2 0.00 0.00 0.00 66 974.3
20260509144615 15 83 1.6 3.2 0.00 0.00 0.00 65 974.2
20260509144112 15 84 0.0 0.0 0.00 0.00 0.00 67 974.5
20260509143609 15 23 0.0 0.0 0.00 0.00 0.00 67 974.2
20260509143107 15 269 0.0 0.0 0.00 0.00 0.00 67 974.2
20260509142602 15 202 0.0 0.0 0.00 0.00 0.00 66 974.1
20260509142058 15 78 0.0 0.0 0.00 0.00 0.00 64 974.0
20260509141554 15 144 0.0 3.2 0.00 0.00 0.00 64 974.0
20260509141051 15 75 3.2 3.2 0.00 0.00 0.00 66 974.1
20260509140548 15 273 0.0 4.8 0.00 0.00 0.00 69 974.2
20260509140046 15 282 1.6 4.8 0.00 0.00 0.00 68 973.9
20260509135543 15 307 1.6 4.8 0.00 0.00 0.00 68 974.1
20260509135041 15 251 0.0 0.0 0.00 0.00 0.00 67 974.0
20260509134537 15 283 1.6 4.8 0.00 0.00 0.00 69 974.0
20260509134035 14 266 0.0 0.0 0.00 0.00 0.00 71 974.2
20260509133531 14 226 0.0 1.6 0.00 0.00 0.00 72 974.2
20260509133029 14 287 3.2 4.8 0.00 0.00 0.00 72 974.4
20260509132527 13 73 1.6 3.2 0.00 0.00 0.00 73 974.6
20260509132026 13 307 3.2 4.8 0.00 0.00 0.00 72 974.5
20260509131521 13 222 0.0 0.0 0.00 0.00 0.00 72 974.6
20260509131018 14 194 0.0 0.0 0.00 0.00 0.00 73 974.8
20260509130514 14 143 0.0 0.0 0.00 0.00 0.00 72 974.5
20260509130011 13 141 0.0 0.0 0.00 0.00 0.00 78 974.8
20260509125507 13 141 0.0 0.0 0.00 0.00 0.00 80 974.6
20260509125003 12 141 0.0 0.0 0.00 0.00 0.00 81 974.7
20260509124501 12 142 0.0 0.0 0.00 0.00 0.00 82 974.5
20260509123958 12 142 0.0 0.0 0.00 0.00 0.00 83 974.5
20260509123455 12 146 0.0 0.0 0.00 0.00 0.00 83 974.7
20260509122951 12 168 0.0 0.0 0.00 0.00 0.00 84 974.8
20260509122448 11 174 0.0 0.0 0.00 0.00 0.00 83 974.7
20260509121945 11 174 0.0 0.0 0.00 0.00 0.00 84 974.4
20260509121442 11 173 0.0 0.0 0.00 0.00 0.00 86 974.5
20260509120940 11 116 0.0 0.0 0.00 0.00 0.00 87 974.6
20260509120438 11 116 0.0 0.0 0.00 0.00 0.00 87 974.7
20260509115935 11 190 0.0 0.0 0.00 0.00 0.00 88 974.7
20260509115432 11 189 0.0 0.0 0.00 0.00 0.00 88 974.7
20260509114929 11 193 0.0 0.0 0.00 0.00 0.00 88 974.5
20260509114428 10 194 0.0 0.0 0.00 0.00 0.00 87 974.4
20260509113927 10 194 0.0 0.0 0.00 0.00 0.00 86 974.3
20260509113424 10 194 0.0 0.0 0.00 0.00 0.00 87 974.5
20260509112921 10 143 0.0 0.0 0.00 0.00 0.00 88 974.4
20260509112418 10 138 0.0 0.0 0.00 0.00 0.00 87 974.4
20260509111915 10 138 0.0 0.0 0.00 0.00 0.00 87 974.4
20260509111412 10 139 0.0 0.0 0.00 0.00 0.00 89 974.6
20260509110910 10 139 0.0 0.0 0.00 0.00 0.00 89 974.5
20260509110405 10 139 0.0 0.0 0.00 0.00 0.00 88 974.3
20260509105904 10 139 0.0 0.0 0.00 0.00 0.00 88 974.4
20260509105402 10 139 0.0 0.0 0.00 0.00 0.00 88 974.4
20260509104858 10 138 0.0 0.0 0.00 0.00 0.00 89 974.3
20260509104355 10 143 0.0 0.0 0.00 0.00 0.00 89 974.2
20260509103853 10 143 0.0 0.0 0.00 0.00 0.00 89 974.3
20260509103350 10 143 0.0 0.0 0.00 0.00 0.00 89 974.4
20260509102848 10 143 0.0 0.0 0.00 0.00 0.00 89 974.3
20260509102345 10 143 0.0 0.0 0.00 0.00 0.00 90 974.3
20260509101841 10 143 0.0 0.0 0.00 0.00 0.00 90 974.3
20260509101337 10 143 0.0 0.0 0.00 0.00 0.00 90 974.1
20260509100835 10 143 0.0 0.0 0.00 0.00 0.00 89 974.2
20260509100332 10 143 0.0 0.0 0.00 0.00 0.00 89 974.2
20260509095829 10 143 0.0 0.0 0.00 0.00 0.00 89 974.3
20260509095326 10 143 0.0 0.0 0.00 0.00 0.00 89 974.3
20260509094823 10 143 0.0 0.0 0.00 0.00 0.00 88 974.2
20260509094320 10 143 0.0 0.0 0.00 0.00 0.00 88 974.6
20260509093818 10 143 0.0 0.0 0.00 0.00 0.00 88 974.1
20260509093315 10 143 0.0 0.0 0.00 0.00 0.00 87 974.3
20260509092813 10 143 0.0 0.0 0.00 0.00 0.00 87 974.2
20260509092311 11 143 0.0 0.0 0.00 0.00 0.00 87 974.4
20260509091809 11 143 0.0 0.0 0.00 0.00 0.00 86 974.5
20260509091305 11 143 0.0 0.0 0.00 0.00 0.00 86 974.6
20260509090802 11 143 0.0 0.0 0.00 0.00 0.00 85 974.5
20260509090259 11 143 0.0 0.0 0.00 0.00 0.00 85 974.7
20260509085757 11 143 0.0 0.0 0.00 0.00 0.00 84 974.6
20260509085254 11 143 0.0 0.0 0.00 0.00 0.00 84 974.8
20260509084750 11 82 0.0 0.0 0.00 0.00 0.00 81 974.6
20260509084247 11 74 0.0 0.0 0.00 0.00 0.00 84 974.7
20260509083745 11 74 0.0 0.0 0.00 0.00 0.00 84 974.5
20260509083242 11 313 0.0 0.0 0.00 0.00 0.00 86 974.6
20260509082738 11 313 0.0 1.6 0.00 0.00 0.00 86 974.7
20260509082235 11 146 0.0 0.0 0.00 0.00 0.00 86 974.6
20260509081732 11 152 0.0 0.0 0.00 0.00 0.00 86 974.5
20260509081229 11 147 0.0 0.0 0.00 0.00 0.00 85 974.4
20260509080727 11 155 0.0 0.0 0.00 0.00 0.00 84 974.5
20260509080225 11 155 0.0 0.0 0.00 0.00 0.00 83 974.4
20260509075723 11 155 0.0 0.0 0.00 0.00 0.00 84 974.4
20260509075220 11 155 0.0 0.0 0.00 0.00 0.00 82 974.3
20260509074717 11 155 0.0 0.0 0.00 0.00 0.00 82 974.4
20260509074215 11 155 0.0 0.0 0.00 0.00 0.00 82 974.4
20260509073710 11 155 0.0 0.0 0.00 0.00 0.00 81 974.3
20260509073207 11 155 0.0 0.0 0.00 0.00 0.00 83 974.3
20260509072704 11 190 0.0 0.0 0.00 0.00 0.00 82 974.1
20260509072200 11 171 0.0 0.0 0.00 0.00 0.00 85 974.2